Location: Akawpaki
(8.3500°N, 4.3833°E)
Time: 08:18:38
(UTC+00:00)

Daily predictions for brighter satellites

Satellite Brightness Start Highest point End
(mag) Time Altitude Azimuth Time Altitude Azimuth Time Altitude Azimuth
Cosmos 1553 Rocket 4.1 17:32:09 10° S 17:38:35 88° E 17:44:56 10° N
GPS 2-14 Rocket1 3.8 17:36:41 10° NW 17:40:25 32° NNE 17:44:10 10° E
SWIFT 2.8 17:36:39 10° WNW 17:40:46 47° NNE 17:44:53 10° E
Meteor 2-15 4.5 17:36:12 10° S 17:42:20 75° E 17:48:26 10° N
Meteor 2-10 Rocket 3.6 17:39:21 10° S 17:44:55 86° E 17:50:14 10° N
ARIANE 5 R/B 3.5 17:43:40 10° SW 17:44:55 12° SSW 17:45:56 10° SSE
ATLAS 5 CENTAUR R/B 1.1 17:45:22 10° W 17:47:09 27° SSW 17:48:46 10° SE
FengYun 1-2 T 4.3 17:41:46 10° SSE 17:47:21 63° ENE 17:52:55 10° N
Cosmos 1455 2.1 17:43:52 10° S 17:47:34 64° E 17:51:17 10° NNE
Ariane H10 4.5 17:45:52 10° SW 17:47:34 15° S 17:49:14 10° SE
Cosmos 2297 Rocket 3.4 17:44:51 10° NNE 17:48:50 20° ENE 17:52:49 10° ESE
PSLV R/B 4.5 17:46:08 10° N 17:50:11 62° WNW 17:54:12 10° SSW
Ariane H10+ 2.9 17:50:36 10° WSW 17:53:39 37° S 18:01:07 10° ESE
Okean-O 3.9 17:52:20 10° ESE 17:55:27 19° ENE 17:58:34 10° NNE
SMAP 4.3 17:52:24 10° S 17:56:52 47° WSW 18:01:20 10° NNW
Cosmos 2322 Rocket 3.7 17:56:17 10° SE 17:59:31 15° ESE 18:01:29 13° E
Cosmos 2278 4.1 17:54:10 10° SSW 17:59:48 67° WNW 18:05:26 10° N
Gbstr 26 Del rocket 4.5 17:54:05 10° NW 18:01:30 89° NE 18:09:40 10° SE
BLOCK DM-SL R/B 4.3 17:56:26 10° WSW 18:01:57 24° SSW 18:04:28 10° SE
CZ-2C R/B 1.7 18:01:42 10° SW 18:05:57 51° SE 18:08:47 18° ENE
Ariane H10+ 3.2 18:00:51 10° W 18:13:19 79° S 18:15:37 21° E
Feng Yun 1-1 Rocket 4.4 18:12:46 10° SSE 18:18:34 88° W 18:24:28 10° NNW
MOS 1 Rocket 3.5 18:14:09 10° NNE 18:19:15 86° ESE 18:24:36 10° S
SL-08 R/B 4.4 18:14:21 10° N 18:20:27 81° E 18:26:33 10° S
Cosmos 2219 3.3 18:16:54 10° N 18:22:28 51° ENE 18:27:59 10° SSE
IRS-1C Rocket 4.0 18:20:29 10° SSE 18:25:44 86° ENE 18:31:00 10° NNW
Cosmos 1939 Rocket 3.1 18:22:27 10° S 18:26:29 69° W 18:30:26 10° NNW
Cosmos 1745 Rocket 4.0 18:20:54 10° N 18:27:08 61° E 18:33:24 10° SSE
DELTA 2 R/B (1) 4.5 18:22:16 10° SSW 18:27:09 32° SE 18:29:00 26° ESE
USA 281 3.7 18:21:10 10° S 18:27:39 65° WSW 18:34:07 10° NNW
Cosmos 1408 2.6 18:25:31 10° N 18:29:06 54° E 18:32:43 10° SSE
Longmarch 3A Rocket 3.3 18:30:00 10° NNW 18:32:59 35° NE 18:35:03 28° ENE
Cosmos 968 Rocket 3.5 18:30:00 10° N 18:34:57 49° ENE 18:39:52 10° SSE
CZ-2C R/B 2.9 18:33:33 28° NE 18:35:49 42° ESE 18:40:44 10° S
Cosmos 1386 Rocket 4.4 18:29:38 10° N 18:35:54 70° E 18:42:02 10° S
SL-16 R/B 2.3 18:31:07 10° S 18:36:37 54° ESE 18:39:25 28° NE
BREEZE-M DEB (TANK) 3.7 18:30:25 10° SSW 18:39:55 39° SE 18:41:06 34° ESE
Cosmos-2242 3.0 18:37:32 10° S 18:41:47 79° W 18:46:00 10° N
Cosmos 1076 Rocket 3.4 18:39:31 10° N 18:43:43 63° E 18:47:58 10° SSE
Helios 1A Rocket 3.1 18:39:55 10° S 18:44:03 74° W 18:48:08 10° NNW
Cosmos 1892 4.0 18:42:07 10° NNW 18:45:45 41° W 18:49:24 10° SSW
YAOGAN 1 2.4 18:42:56 10° SSE 18:47:14 76° ENE 18:51:32 10° N
GPS 2-12 Rocket1 2.9 18:43:15 10° WNW 18:47:40 80° SSW 18:48:25 60° SE
Cosmos 2227 Rocket 2.0 18:47:41 10° NNW 18:53:19 78° ENE 18:58:58 10° SSE
Cosmos 192 4.4 18:49:23 10° SSW 18:54:16 75° WNW 18:56:48 29° N
CZ-4 R/B 1.8 18:50:53 10° S 18:54:48 60° WSW 18:58:39 10° NNW
Cosmos 1709 Rocket 4.0 18:50:27 10° N 18:56:41 58° E 19:02:52 10° SSE
Cosmos 2360 Rocket 3.7 18:53:58 10° SSE 18:56:16 21° SSE 18:56:16 21° SSE
ARIANE 5 DEB (SYLDA) 4.2 18:48:06 10° W 19:03:36 56° S 19:05:53 40° SE
Cosmos 1486 Rocket 4.3 18:59:39 10° NNW 19:04:53 67° WSW 19:10:06 10° S
Hubble Space Telescope 2.2 19:03:31 10° W 19:07:12 31° SSW 19:07:30 31° SSW
Milstar 3 4.4 19:05:54 10° NNW 19:09:46 17° N 19:09:46 17° N
CZ-2C R/B 3.8 19:06:49 10° S 19:12:32 61° WSW 19:18:14 10° NNW
CSL-04 Debris 4.1 19:08:31 10° SSE 19:16:47 29° NNW 19:19:21 10° NNW
ATLAS 3B CENTAUR R/B 3.8 19:10:33 10° SSW 19:16:18 37° SE 19:16:34 37° SE
SWIFT 4.0 19:18:34 10° W 19:21:11 32° WSW 19:21:11 32° WSW
Cosmos 2297 Rocket 4.0 19:27:50 10° NW 19:32:38 29° WSW 19:37:26 10° SSW
H-2A R/B 3.0 19:27:37 10° S 19:37:10 15° NNW 19:38:01 10° NNW
Cosmos 2322 Rocket 3.4 19:38:01 10° SW 19:43:12 37° WNW 19:43:24 37° WNW
CZ-2C R/B 4.4 19:42:35 10° W 19:43:09 12° WNW 19:43:09 12° WNW
Ariane H10-3 4.5 19:50:09 10° W 20:00:53 32° SW 20:00:53 32° SW
